ABQ216 OPIS-OMDB

Flight info

Callsign ABQ216
Flight time 2h 39m
Altitude 34000
Route KALMI J139 HANGU G325 PG T385 TAPDO A454 PASOV B540 MIVEK P574 IMPED
Aircraft A321/M-SDE3FGHIRWY/LB1

Departure

Time 2026-05-04 10:47
Airport Islamabad International Airport (OPIS)

Arrival

Time 2026-05-04 13:26
Airport Dubai International Airport (OMDB)
Time Latitude Longitude Altitude Speed Heading
2026-05-04 10:29 33.55459 72.83257 1773 ft 0 kts 355°
2026-05-04 10:35 33.55455 72.83258 1773 ft 3 kts 355°
2026-05-04 10:35 33.55429 72.83260 1772 ft 4 kts 355°
2026-05-04 10:35 33.55407 72.83262 1771 ft 3 kts 355°
2026-05-04 10:36 33.55389 72.83265 1770 ft 4 kts 340°
2026-05-04 10:36 33.55372 72.83275 1772 ft 4 kts 320°
2026-05-04 10:36 33.55355 72.83297 1772 ft 2 kts 299°
2026-05-04 10:36 33.55355 72.83298 1772 ft 1 kts 299°
2026-05-04 10:39 33.55355 72.83292 1770 ft 1 kts 276°
2026-05-04 10:39 33.55342 72.83266 1770 ft 7 kts 236°
2026-05-04 10:39 33.55315 72.83220 1771 ft 8 kts 235°
2026-05-04 10:40 33.55274 72.83150 1769 ft 13 kts 235°
2026-05-04 10:40 33.55223 72.83060 1772 ft 13 kts 236°
2026-05-04 10:40 33.55176 72.82976 1770 ft 12 kts 236°
2026-05-04 10:40 33.55149 72.82885 1769 ft 13 kts 274°
2026-05-04 10:41 33.55168 72.82765 1772 ft 16 kts 282°
2026-05-04 10:41 33.55191 72.82618 1768 ft 19 kts 279°
2026-05-04 10:41 33.55212 72.82470 1770 ft 17 kts 281°
2026-05-04 10:41 33.55233 72.82335 1768 ft 16 kts 280°
2026-05-04 10:42 33.55252 72.82212 1768 ft 15 kts 280°
2026-05-04 10:42 33.55269 72.82097 1770 ft 13 kts 280°
2026-05-04 10:42 33.55285 72.81994 1771 ft 13 kts 281°
2026-05-04 10:42 33.55306 72.81861 1767 ft 20 kts 281°
2026-05-04 10:43 33.55335 72.81668 1767 ft 26 kts 279°
2026-05-04 10:44 33.55389 72.80692 1765 ft 13 kts 186°
2026-05-04 10:45 33.55316 72.80673 1763 ft 15 kts 195°
2026-05-04 10:45 33.55220 72.80646 1753 ft 13 kts 191°
2026-05-04 10:45 33.55130 72.80639 1755 ft 13 kts 156°
2026-05-04 10:46 33.55089 72.80753 1753 ft 22 kts 103°
2026-05-04 10:46 33.55031 72.81128 1754 ft 79 kts 101°
2026-05-04 10:46 33.54898 72.81996 1759 ft 134 kts 100°
2026-05-04 10:46 33.54699 72.83272 1765 ft 175 kts 101°
2026-05-04 10:47 33.54468 72.84790 2117 ft 184 kts 98°
2026-05-04 10:47 33.54234 72.86301 2718 ft 186 kts 99°
2026-05-04 10:47 33.53985 72.87840 3266 ft 189 kts 98°
2026-05-04 10:47 33.53744 72.89369 3809 ft 183 kts 98°
2026-05-04 10:49 33.44402 72.89869 5650 ft 284 kts 199°
2026-05-04 10:49 33.42501 72.89173 6343 ft 288 kts 198°
2026-05-04 10:50 33.40563 72.88496 6866 ft 293 kts 197°
2026-05-04 10:51 33.37259 72.75256 9843 ft 285 kts 283°
2026-05-04 10:52 33.37634 72.72910 10358 ft 295 kts 283°
2026-05-04 10:52 33.38034 72.70412 10488 ft 316 kts 283°
2026-05-04 10:52 33.38450 72.67787 10616 ft 335 kts 283°
2026-05-04 10:54 33.45525 72.49099 13855 ft 379 kts 324°
2026-05-04 10:54 33.47705 72.47372 14324 ft 383 kts 324°
2026-05-04 10:56 33.54780 72.28047 17231 ft 394 kts 268°
2026-05-04 10:56 33.54788 72.24744 17615 ft 398 kts 267°
2026-05-04 10:56 33.54796 72.21453 17991 ft 402 kts 267°
2026-05-04 10:57 33.54799 72.18090 18339 ft 406 kts 267°
2026-05-04 10:57 33.54803 72.14693 18680 ft 410 kts 266°
2026-05-04 10:57 33.54809 72.11254 19018 ft 414 kts 266°
2026-05-04 10:57 33.54813 72.07787 19355 ft 418 kts 266°
2026-05-04 10:58 33.54818 72.04286 19660 ft 423 kts 266°
2026-05-04 10:58 33.54791 72.00741 19956 ft 427 kts 264°
2026-05-04 10:58 33.54654 71.97170 20259 ft 430 kts 262°
2026-05-04 10:58 33.54439 71.93629 20562 ft 434 kts 261°
2026-05-04 10:59 33.54179 71.90013 20873 ft 438 kts 261°
2026-05-04 10:59 33.53911 71.86364 21186 ft 442 kts 261°
2026-05-04 10:59 33.53655 71.82678 21488 ft 446 kts 261°
2026-05-04 10:59 33.53416 71.78951 21804 ft 450 kts 262°
2026-05-04 11:00 33.53190 71.75198 22105 ft 453 kts 262°
2026-05-04 11:01 33.51560 71.48063 23920 ft 480 kts 263°
2026-05-04 11:02 33.51310 71.44062 24172 ft 484 kts 263°
2026-05-04 11:02 33.51064 71.40072 24413 ft 487 kts 263°
2026-05-04 11:05 33.34635 70.90154 27838 ft 486 kts 208°
2026-05-04 11:06 33.31755 70.88015 28085 ft 488 kts 208°
2026-05-04 11:06 33.30631 70.87180 28132 ft 490 kts 208°
2026-05-04 11:06 33.27719 70.84873 28370 ft 488 kts 210°
2026-05-04 11:06 33.24853 70.82685 28533 ft 490 kts 208°
2026-05-04 11:08 33.04116 70.67526 29650 ft 509 kts 211°
2026-05-04 11:10 32.83260 70.51836 31562 ft 506 kts 212°
2026-05-04 11:12 32.62615 70.36058 33360 ft 505 kts 211°
2026-05-04 11:12 32.59608 70.33879 33576 ft 505 kts 210°
2026-05-04 11:12 32.56574 70.31763 33725 ft 505 kts 209°
2026-05-04 11:12 32.53531 70.29687 33749 ft 504 kts 209°
2026-05-04 11:13 32.47505 70.25592 33752 ft 503 kts 209°
2026-05-04 11:13 32.41457 70.21423 33749 ft 503 kts 210°
2026-05-04 11:14 32.40435 70.20713 33759 ft 502 kts 210°
2026-05-04 11:16 32.11653 70.00060 33757 ft 499 kts 210°
2026-05-04 11:16 32.05701 69.95800 33752 ft 501 kts 211°
2026-05-04 11:17 31.99767 69.91541 33760 ft 503 kts 211°
2026-05-04 11:19 31.75722 69.74391 33760 ft 507 kts 211°
2026-05-04 11:19 31.69694 69.70100 33774 ft 507 kts 210°
2026-05-04 11:20 31.63655 69.65814 33767 ft 507 kts 210°
2026-05-04 11:20 31.57654 69.61568 33760 ft 507 kts 210°
2026-05-04 11:22 31.33934 69.43848 33758 ft 507 kts 226°
2026-05-04 11:23 31.29165 69.37784 33759 ft 507 kts 228°
2026-05-04 11:25 31.12465 69.16565 33759 ft 508 kts 228°
2026-05-04 11:25 31.07703 69.10531 33770 ft 509 kts 228°
2026-05-04 11:27 30.86125 68.83322 33756 ft 507 kts 228°
2026-05-04 11:28 30.81367 68.77345 33755 ft 507 kts 227°
2026-05-04 11:28 30.76562 68.71334 33758 ft 507 kts 227°
2026-05-04 11:29 30.71754 68.65324 33768 ft 508 kts 227°
2026-05-04 11:29 30.66943 68.59305 33767 ft 508 kts 227°
2026-05-04 11:33 30.33200 68.17415 33768 ft 509 kts 226°
2026-05-04 11:33 30.28358 68.11436 33756 ft 509 kts 226°
2026-05-04 11:34 30.23523 68.05474 33760 ft 508 kts 226°
2026-05-04 11:34 30.18712 67.99555 33755 ft 508 kts 225°
2026-05-04 11:35 30.13876 67.93617 33769 ft 508 kts 227°
2026-05-04 11:35 30.09041 67.87681 33782 ft 506 kts 227°
2026-05-04 11:36 30.05043 67.82760 33781 ft 505 kts 227°
2026-05-04 11:36 30.00869 67.77585 33750 ft 502 kts 227°
2026-05-04 11:37 29.96123 67.71687 33750 ft 501 kts 227°
2026-05-04 11:37 29.91373 67.65814 33754 ft 501 kts 227°
2026-05-04 11:38 29.86608 67.59955 33760 ft 501 kts 227°
2026-05-04 11:38 29.81872 67.54132 33753 ft 502 kts 227°
2026-05-04 11:39 29.77098 67.48266 33752 ft 502 kts 227°
2026-05-04 11:41 29.60447 67.27801 33764 ft 502 kts 227°
2026-05-04 11:41 29.55674 67.21948 33736 ft 502 kts 227°
2026-05-04 11:42 29.50883 67.16089 33739 ft 503 kts 225°
2026-05-04 11:42 29.46107 67.10256 33740 ft 505 kts 225°
2026-05-04 11:43 29.41292 67.04381 33726 ft 506 kts 227°
2026-05-04 11:43 29.36473 66.98493 33726 ft 507 kts 227°
2026-05-04 11:44 29.31637 66.92598 33737 ft 508 kts 227°
2026-05-04 11:44 29.26784 66.86714 33752 ft 508 kts 224°
2026-05-04 11:45 29.21962 66.80887 33742 ft 508 kts 226°
2026-05-04 11:45 29.17116 66.74996 33750 ft 508 kts 226°
2026-05-04 11:46 29.12270 66.69109 33762 ft 508 kts 225°
2026-05-04 11:46 29.07421 66.63251 33754 ft 506 kts 225°
2026-05-04 11:47 29.02595 66.57440 33762 ft 508 kts 225°
2026-05-04 11:47 28.97740 66.51578 33749 ft 508 kts 225°
2026-05-04 11:48 28.92893 66.45708 33759 ft 508 kts 226°
2026-05-04 11:48 28.88038 66.39839 33753 ft 508 kts 226°
2026-05-04 11:49 28.83176 66.33985 33756 ft 509 kts 226°
2026-05-04 11:49 28.78303 66.28123 33756 ft 509 kts 226°
2026-05-04 11:50 28.73472 66.22298 33759 ft 509 kts 226°
2026-05-04 11:50 28.68597 66.16441 33768 ft 509 kts 226°
2026-05-04 11:51 28.63713 66.10607 33762 ft 509 kts 225°
2026-05-04 11:51 28.58848 66.04798 33770 ft 508 kts 225°
2026-05-04 11:52 28.53969 65.98981 33757 ft 508 kts 226°
2026-05-04 11:52 28.49085 65.93160 33762 ft 509 kts 226°
2026-05-04 11:53 28.44240 65.87371 33761 ft 509 kts 227°
2026-05-04 11:53 28.39358 65.81544 33760 ft 509 kts 227°
2026-05-04 11:55 28.19888 65.58460 33771 ft 506 kts 227°
2026-05-04 11:56 28.15022 65.52702 33769 ft 505 kts 227°
2026-05-04 11:56 28.11557 65.48617 33767 ft 503 kts 226°
2026-05-04 11:57 28.06707 65.42917 33750 ft 503 kts 226°
2026-05-04 11:57 28.01900 65.37245 33754 ft 503 kts 226°
2026-05-04 11:58 27.97049 65.31542 33749 ft 503 kts 226°
2026-05-04 11:58 27.92193 65.25850 33752 ft 502 kts 226°
2026-05-04 11:59 27.87343 65.20171 33755 ft 502 kts 226°
2026-05-04 11:59 27.82495 65.14489 33757 ft 502 kts 226°
2026-05-04 12:00 27.77679 65.08849 33754 ft 502 kts 226°
2026-05-04 12:00 27.72828 65.03186 33750 ft 502 kts 226°
2026-05-04 12:01 27.67963 64.97518 33747 ft 502 kts 226°
2026-05-04 12:02 27.50949 64.77747 33747 ft 504 kts 226°
2026-05-04 12:03 27.46062 64.72087 33740 ft 504 kts 226°
2026-05-04 12:03 27.41171 64.66420 33734 ft 505 kts 226°
2026-05-04 12:04 27.36282 64.60772 33740 ft 506 kts 226°
2026-05-04 12:04 27.31363 64.55101 33744 ft 506 kts 226°
2026-05-04 12:05 27.26448 64.49435 33752 ft 506 kts 226°
2026-05-04 12:05 27.21560 64.43807 33757 ft 506 kts 226°
2026-05-04 12:06 27.16634 64.38156 33758 ft 506 kts 226°
2026-05-04 12:06 27.11723 64.32522 33754 ft 505 kts 226°
2026-05-04 12:07 27.06819 64.26887 33751 ft 504 kts 226°
2026-05-04 12:07 27.01913 64.21263 33756 ft 504 kts 226°
2026-05-04 12:08 26.97041 64.15690 33756 ft 504 kts 226°
2026-05-04 12:08 26.92129 64.10103 33757 ft 504 kts 226°
2026-05-04 12:09 26.87192 64.04534 33758 ft 503 kts 225°
2026-05-04 12:09 26.82253 63.98975 33758 ft 503 kts 225°
2026-05-04 12:10 26.77347 63.93454 33755 ft 503 kts 225°
2026-05-04 12:10 26.72412 63.87897 33753 ft 503 kts 225°
2026-05-04 12:11 26.67477 63.82339 33769 ft 503 kts 225°
2026-05-04 12:11 26.62544 63.76804 33759 ft 503 kts 225°
2026-05-04 12:12 26.57604 63.71270 33760 ft 503 kts 225°
2026-05-04 12:12 26.52699 63.65773 33751 ft 503 kts 225°
2026-05-04 12:14 26.32951 63.43741 33772 ft 501 kts 225°
2026-05-04 12:15 26.28013 63.38246 33770 ft 501 kts 225°
2026-05-04 12:15 26.23101 63.32787 33764 ft 500 kts 225°
2026-05-04 12:16 26.18165 63.27324 33768 ft 500 kts 225°
2026-05-04 12:16 26.13261 63.21891 33754 ft 501 kts 225°
2026-05-04 12:17 26.08328 63.16420 33758 ft 500 kts 225°
2026-05-04 12:17 26.03395 63.10967 33759 ft 500 kts 225°
2026-05-04 12:18 25.98466 63.05534 33764 ft 499 kts 225°
2026-05-04 12:18 25.93551 63.00097 33767 ft 498 kts 225°
2026-05-04 12:19 25.88682 62.94698 33760 ft 498 kts 225°
2026-05-04 12:19 25.83767 62.89266 33759 ft 498 kts 225°
2026-05-04 12:20 25.78875 62.83868 33764 ft 498 kts 225°
2026-05-04 12:20 25.73969 62.78459 33753 ft 497 kts 225°
2026-05-04 12:21 25.69060 62.73055 33752 ft 497 kts 225°
2026-05-04 12:21 25.64178 62.67688 33749 ft 497 kts 225°
2026-05-04 12:22 25.59261 62.62292 33753 ft 497 kts 225°
2026-05-04 12:22 25.54352 62.56903 33748 ft 497 kts 225°
2026-05-04 12:23 25.49465 62.51544 33750 ft 497 kts 225°
2026-05-04 12:23 25.44545 62.46170 33750 ft 497 kts 225°
2026-05-04 12:24 25.39623 62.40802 33756 ft 497 kts 225°
2026-05-04 12:24 25.34697 62.35431 33748 ft 497 kts 225°
2026-05-04 12:25 25.29803 62.30110 33752 ft 497 kts 225°
2026-05-04 12:25 25.24886 62.24753 33755 ft 497 kts 225°
2026-05-04 12:26 25.19968 62.19396 33757 ft 496 kts 225°
2026-05-04 12:26 25.16478 62.15599 33748 ft 495 kts 225°
2026-05-04 12:27 25.11565 62.10264 33755 ft 496 kts 225°
2026-05-04 12:27 25.06674 62.04958 33750 ft 496 kts 225°
2026-05-04 12:28 25.01738 61.99622 33755 ft 496 kts 225°
2026-05-04 12:28 24.96834 61.94326 33756 ft 496 kts 225°
2026-05-04 12:29 24.91906 61.89006 33750 ft 496 kts 225°
2026-05-04 12:29 24.86958 61.83669 33748 ft 496 kts 225°
2026-05-04 12:30 24.82057 61.78387 33753 ft 496 kts 225°
2026-05-04 12:30 24.77125 61.73080 33756 ft 496 kts 225°
2026-05-04 12:31 24.72186 61.67778 33752 ft 496 kts 225°
2026-05-04 12:31 24.67249 61.62481 33749 ft 496 kts 225°
2026-05-04 12:32 24.59850 61.54536 33751 ft 496 kts 224°
2026-05-04 12:33 24.54936 61.49286 33754 ft 496 kts 224°
2026-05-04 12:33 24.49989 61.44005 33751 ft 496 kts 224°
2026-05-04 12:34 24.45045 61.38721 33754 ft 496 kts 225°
2026-05-04 12:34 24.40872 61.32810 33744 ft 493 kts 243°
2026-05-04 12:35 24.38450 61.25846 33739 ft 486 kts 261°
2026-05-04 12:35 24.36956 61.18612 33746 ft 486 kts 260°
2026-05-04 12:36 24.35447 61.11377 33742 ft 487 kts 260°
2026-05-04 12:36 24.34190 61.05373 33744 ft 487 kts 260°
2026-05-04 12:37 24.32860 60.99047 33747 ft 486 kts 260°
2026-05-04 12:37 24.31357 60.91855 33757 ft 487 kts 260°
2026-05-04 12:38 24.29841 60.84618 33751 ft 488 kts 260°
2026-05-04 12:38 24.28308 60.77375 33761 ft 488 kts 260°
2026-05-04 12:39 24.26776 60.70141 33757 ft 488 kts 260°
2026-05-04 12:39 24.25241 60.62897 33753 ft 487 kts 260°
2026-05-04 12:40 24.23716 60.55719 33752 ft 487 kts 260°
2026-05-04 12:40 24.22178 60.48490 33747 ft 487 kts 260°
2026-05-04 12:41 24.20633 60.41259 33745 ft 487 kts 260°
2026-05-04 12:41 24.19088 60.34036 33749 ft 487 kts 260°
2026-05-04 12:42 24.17552 60.26862 33751 ft 487 kts 260°
2026-05-04 12:42 24.16000 60.19626 33747 ft 487 kts 260°
2026-05-04 12:43 24.14446 60.12410 33745 ft 487 kts 259°
2026-05-04 12:43 24.12883 60.05185 33748 ft 487 kts 259°
2026-05-04 12:44 24.11325 59.98021 33739 ft 487 kts 259°
2026-05-04 12:44 24.09752 59.90804 33741 ft 487 kts 259°
2026-05-04 12:45 24.08182 59.83600 33744 ft 487 kts 259°
2026-05-04 12:45 24.06615 59.76366 33760 ft 489 kts 259°
2026-05-04 12:46 24.05041 59.69176 33765 ft 489 kts 259°
2026-05-04 12:46 24.03454 59.61942 33759 ft 488 kts 259°
2026-05-04 12:47 24.02327 59.56809 33750 ft 490 kts 259°
2026-05-04 12:47 24.00743 59.49583 33754 ft 488 kts 259°
2026-05-04 12:48 23.99163 59.42421 33759 ft 488 kts 259°
2026-05-04 12:48 23.97565 59.35206 33758 ft 488 kts 259°
2026-05-04 12:49 23.95969 59.27997 33759 ft 488 kts 259°
2026-05-04 12:49 23.94372 59.20801 33760 ft 488 kts 259°
2026-05-04 12:50 23.93730 59.13557 33754 ft 478 kts 278°
2026-05-04 12:50 23.95061 59.06566 33744 ft 467 kts 295°
2026-05-04 12:51 23.97243 58.99866 33740 ft 467 kts 294°
2026-05-04 12:51 23.99389 58.93154 33743 ft 468 kts 294°
2026-05-04 12:52 24.01507 58.86487 33739 ft 468 kts 294°
2026-05-04 12:52 24.03644 58.79761 33741 ft 468 kts 294°
2026-05-04 12:53 24.05791 58.73046 33742 ft 468 kts 294°
2026-05-04 12:53 24.07944 58.66307 33741 ft 468 kts 294°
2026-05-04 12:54 24.10070 58.59623 33748 ft 468 kts 294°
2026-05-04 12:54 24.12209 58.52890 33739 ft 468 kts 294°
2026-05-04 12:55 24.14333 58.46161 33745 ft 468 kts 294°
2026-05-04 12:55 24.16464 58.39427 33743 ft 468 kts 294°
2026-05-04 12:56 24.18591 58.32685 33739 ft 468 kts 294°
2026-05-04 12:56 24.20704 58.25984 33742 ft 468 kts 294°
2026-05-04 12:57 24.22824 58.19259 33750 ft 468 kts 294°
2026-05-04 12:57 24.24947 58.12501 33754 ft 469 kts 294°
2026-05-04 12:58 24.26705 58.06881 33755 ft 469 kts 294°
2026-05-04 12:58 24.29166 57.99015 33754 ft 469 kts 294°
2026-05-04 12:59 24.31281 57.92260 33666 ft 467 kts 294°
2026-05-04 12:59 24.31978 57.90027 33238 ft 468 kts 294°
2026-05-04 12:59 24.33387 57.85505 32283 ft 470 kts 294°
2026-05-04 12:59 24.34440 57.82121 31555 ft 471 kts 294°
2026-05-04 13:00 24.35145 57.79861 31080 ft 472 kts 293°
2026-05-04 13:00 24.36203 57.76459 30320 ft 473 kts 293°
2026-05-04 13:00 24.37266 57.73031 29551 ft 475 kts 293°
2026-05-04 13:00 24.38677 57.68473 28497 ft 477 kts 293°
2026-05-04 13:01 24.39396 57.66150 27941 ft 478 kts 293°
2026-05-04 13:01 24.40825 57.61546 26535 ft 487 kts 292°
2026-05-04 13:01 24.41926 57.57997 25328 ft 496 kts 290°
2026-05-04 13:01 24.43046 57.54377 24275 ft 501 kts 289°
2026-05-04 13:02 24.43786 57.51976 23793 ft 499 kts 288°
2026-05-04 13:02 24.44890 57.48379 23124 ft 495 kts 288°
2026-05-04 13:02 24.45986 57.44818 22820 ft 492 kts 287°
2026-05-04 13:02 24.47082 57.41270 22725 ft 490 kts 287°
2026-05-04 13:03 24.48530 57.36572 22744 ft 491 kts 287°
2026-05-04 13:03 24.49255 57.34213 22765 ft 491 kts 287°
2026-05-04 13:03 24.50346 57.30656 22747 ft 491 kts 287°
2026-05-04 13:03 24.51437 57.27095 22751 ft 491 kts 287°
2026-05-04 13:04 24.52525 57.23545 22761 ft 491 kts 287°
2026-05-04 13:04 24.53614 57.19993 22761 ft 491 kts 287°
2026-05-04 13:04 24.54704 57.16437 22754 ft 491 kts 287°
2026-05-04 13:04 24.55798 57.12871 22751 ft 491 kts 287°
2026-05-04 13:05 24.57240 57.08168 22750 ft 491 kts 287°
2026-05-04 13:05 24.57962 57.05810 22765 ft 491 kts 287°
2026-05-04 13:05 24.59052 57.02251 22750 ft 491 kts 287°
2026-05-04 13:05 24.60139 56.98693 22746 ft 491 kts 287°
2026-05-04 13:06 24.61219 56.95133 22760 ft 491 kts 287°
2026-05-04 13:06 24.62296 56.91579 22765 ft 491 kts 287°
2026-05-04 13:06 24.63374 56.88015 22748 ft 491 kts 287°
2026-05-04 13:06 24.64587 56.84504 22746 ft 490 kts 294°
2026-05-04 13:07 24.66184 56.81238 22763 ft 492 kts 301°
2026-05-04 13:07 24.67965 56.78028 22760 ft 492 kts 301°
2026-05-04 13:07 24.69751 56.74807 22750 ft 493 kts 301°
2026-05-04 13:07 24.71531 56.71593 22369 ft 492 kts 301°
2026-05-04 13:08 24.73316 56.68357 21226 ft 496 kts 299°
2026-05-04 13:08 24.75100 56.65128 20451 ft 491 kts 298°
2026-05-04 13:08 24.76859 56.61933 19776 ft 483 kts 298°
2026-05-04 13:08 24.78583 56.58804 19144 ft 475 kts 298°
2026-05-04 13:09 24.80279 56.55720 18529 ft 466 kts 298°
2026-05-04 13:09 24.81919 56.52732 17913 ft 458 kts 297°
2026-05-04 13:09 24.83533 56.49789 16933 ft 441 kts 297°
2026-05-04 13:09 24.85088 56.46956 15575 ft 425 kts 298°
2026-05-04 13:10 24.86584 56.44228 14363 ft 407 kts 298°
2026-05-04 13:10 24.87708 56.41490 13921 ft 385 kts 285°
2026-05-04 13:10 24.88257 56.38629 13663 ft 380 kts 275°
2026-05-04 13:10 24.88327 56.35753 13408 ft 378 kts 266°
2026-05-04 13:11 24.88153 56.32872 13155 ft 369 kts 266°
2026-05-04 13:11 24.87999 56.30145 12908 ft 351 kts 267°
2026-05-04 13:11 24.87949 56.27504 12651 ft 339 kts 275°
2026-05-04 13:11 24.88365 56.24997 12392 ft 328 kts 287°
2026-05-04 13:12 24.89206 56.22703 12149 ft 319 kts 298°
2026-05-04 13:12 24.90271 56.20637 11912 ft 310 kts 300°
2026-05-04 13:12 24.91323 56.18599 11653 ft 302 kts 300°
2026-05-04 13:12 24.92347 56.16603 11403 ft 295 kts 300°
2026-05-04 13:13 24.93343 56.14653 11153 ft 288 kts 300°
2026-05-04 13:13 24.94311 56.12752 10900 ft 282 kts 300°
2026-05-04 13:13 24.95256 56.10886 10639 ft 276 kts 299°
2026-05-04 13:13 24.95966 56.08910 10397 ft 280 kts 291°
2026-05-04 13:14 24.96609 56.06871 10145 ft 283 kts 292°
2026-05-04 13:14 24.97257 56.04823 9912 ft 282 kts 291°
2026-05-04 13:14 24.97896 56.02809 9794 ft 282 kts 292°
2026-05-04 13:14 24.98543 56.00774 9665 ft 281 kts 292°
2026-05-04 13:15 24.99185 55.98750 9454 ft 279 kts 291°
2026-05-04 13:15 24.99822 55.96735 9060 ft 278 kts 292°
2026-05-04 13:15 25.00455 55.94724 8663 ft 277 kts 292°
2026-05-04 13:15 25.01084 55.92719 8278 ft 276 kts 291°
2026-05-04 13:16 25.01708 55.90733 7964 ft 274 kts 292°
2026-05-04 13:16 25.02334 55.88750 7564 ft 273 kts 291°
2026-05-04 13:16 25.02956 55.86775 7186 ft 272 kts 291°
2026-05-04 13:16 25.03364 55.85471 6938 ft 271 kts 291°
2026-05-04 13:17 25.03829 55.83990 6644 ft 270 kts 291°
2026-05-04 13:17 25.04441 55.82040 6263 ft 268 kts 291°
2026-05-04 13:17 25.05041 55.80127 5890 ft 267 kts 291°
2026-05-04 13:17 25.05633 55.78240 5525 ft 266 kts 291°
2026-05-04 13:18 25.06236 55.76321 5179 ft 263 kts 291°
2026-05-04 13:18 25.06818 55.74456 5044 ft 252 kts 291°
2026-05-04 13:18 25.07375 55.72670 4922 ft 241 kts 291°
2026-05-04 13:18 25.07909 55.70952 4771 ft 233 kts 291°
2026-05-04 13:19 25.08432 55.69272 4507 ft 230 kts 291°
2026-05-04 13:19 25.08950 55.67606 4216 ft 229 kts 291°
2026-05-04 13:19 25.09466 55.65946 3915 ft 228 kts 291°
2026-05-04 13:19 25.09981 55.64294 3620 ft 227 kts 291°
2026-05-04 13:20 25.10646 55.62760 3330 ft 224 kts 303°
2026-05-04 13:20 25.11467 55.61296 3032 ft 224 kts 303°
2026-05-04 13:20 25.12283 55.59836 2745 ft 223 kts 303°
2026-05-04 13:20 25.13094 55.58381 2461 ft 222 kts 303°
2026-05-04 13:21 25.13881 55.56956 2299 ft 211 kts 303°
2026-05-04 13:21 25.14630 55.55606 2128 ft 203 kts 303°
2026-05-04 13:21 25.15366 55.54285 2036 ft 201 kts 303°
2026-05-04 13:21 25.16089 55.52986 2002 ft 191 kts 303°
2026-05-04 13:22 25.16734 55.51826 2010 ft 166 kts 303°
2026-05-04 13:22 25.17292 55.50822 2008 ft 149 kts 303°
2026-05-04 13:22 25.17824 55.49867 2004 ft 144 kts 303°
2026-05-04 13:22 25.18344 55.48932 1945 ft 142 kts 303°
2026-05-04 13:23 25.18861 55.48003 1807 ft 141 kts 303°
2026-05-04 13:23 25.19372 55.47085 1645 ft 140 kts 303°
2026-05-04 13:23 25.19882 55.46167 1468 ft 140 kts 303°
2026-05-04 13:23 25.20391 55.45251 1287 ft 140 kts 303°
2026-05-04 13:24 25.20899 55.44337 1098 ft 139 kts 303°
2026-05-04 13:24 25.21404 55.43428 924 ft 139 kts 303°
2026-05-04 13:24 25.21911 55.42516 734 ft 139 kts 303°
2026-05-04 13:25 25.22916 55.40703 358 ft 140 kts 302°
2026-05-04 13:25 25.23423 55.39787 153 ft 139 kts 303°
2026-05-04 13:25 25.23923 55.38884 35 ft 132 kts 302°
2026-05-04 13:25 25.24339 55.38147 32 ft 86 kts 301°
2026-05-04 13:26 25.24577 55.37725 28 ft 54 kts 300°
2026-05-04 13:26 25.24776 55.37358 29 ft 58 kts 302°
2026-05-04 13:26 25.24982 55.36990 28 ft 39 kts 302°
2026-05-04 13:26 25.25028 55.36832 29 ft 17 kts 265°
2026-05-04 13:27 25.25026 55.36729 28 ft 5 kts 271°
2026-05-04 13:27 25.25026 55.36711 27 ft 1 kts 271°
2026-05-04 13:27 25.25026 55.36700 25 ft 3 kts 271°
2026-05-04 13:27 25.25027 55.36651 24 ft 8 kts 271°
2026-05-04 13:28 25.25027 55.36589 24 ft 8 kts 270°
2026-05-04 13:28 25.25029 55.36524 23 ft 10 kts 275°
2026-05-04 13:28 25.25045 55.36427 22 ft 14 kts 285°
2026-05-04 13:28 25.25082 55.36332 22 ft 13 kts 297°
2026-05-04 13:29 25.25128 55.36246 22 ft 13 kts 302°
2026-05-04 13:29 25.25177 55.36162 23 ft 13 kts 302°
2026-05-04 13:29 25.25208 55.36109 22 ft 13 kts 302°
2026-05-04 13:29 25.25271 55.35992 24 ft 21 kts 301°
2026-05-04 13:30 25.25347 55.35856 21 ft 21 kts 302°
2026-05-04 13:30 25.25423 55.35721 21 ft 21 kts 302°
2026-05-04 13:30 25.25498 55.35589 21 ft 20 kts 302°
2026-05-04 13:30 25.25571 55.35457 21 ft 20 kts 302°
2026-05-04 13:31 25.25644 55.35328 21 ft 20 kts 302°
2026-05-04 13:31 25.25704 55.35219 23 ft 16 kts 301°
2026-05-04 13:31 25.25762 55.35115 23 ft 16 kts 301°
2026-05-04 13:31 25.25817 55.35013 23 ft 15 kts 301°
2026-05-04 13:32 25.25873 55.34914 21 ft 15 kts 302°
2026-05-04 13:32 25.25927 55.34818 22 ft 14 kts 301°
2026-05-04 13:32 25.25978 55.34726 21 ft 13 kts 301°
2026-05-04 13:32 25.25986 55.34673 21 ft 6 kts 251°
2026-05-04 13:33 25.25961 55.34643 21 ft 5 kts 215°
2026-05-04 13:33 25.25935 55.34625 21 ft 4 kts 211°
2026-05-04 13:33 25.25915 55.34612 21 ft 3 kts 211°
2026-05-04 13:33 25.25902 55.34602 21 ft 2 kts 212°
2026-05-04 13:34 25.25882 55.34589 21 ft 4 kts 212°
2026-05-04 13:34 25.25862 55.34575 21 ft 4 kts 211°
2026-05-04 13:34 25.25843 55.34563 21 ft 2 kts 211°
2026-05-04 13:34 25.25838 55.34559 21 ft 0 kts 211°